Location: Budapest
(47.4979°N, 19.0402°E)
Time: 09:19:54
(UTC+02:00)

Vanguard 2 - Visible Passes

Search period start: 19 October 2017 00:00
Search period end: 29 October 2017 00:00
Orbit: 554 x 2939 km, 32.9° (Epoch: 18 October)

Date Brightness Start Highest point End Pass type
(mag) Time Alt. Az. Time Alt. Az. Time Alt. Az.
19 Oct 12.2 06:33:15 10° SSE 06:36:42 11° SSE 06:39:53 10° SE visible
22 Oct 12.1 05:17:21 10° SSE 05:20:43 11° SE 05:23:56 10° SE visible
23 Oct 12.0 05:29:52 10° S 05:38:28 16° SE 05:46:04 10° ESE visible
24 Oct 11.8 05:45:00 10° S 05:56:13 21° SSE 06:05:46 10° ESE visible
25 Oct 11.6 06:01:03 10° SSW 06:14:01 26° SSE 06:24:44 10° ESE visible
26 Oct 11.9 04:14:13 10° SSE 04:22:04 15° SE 04:29:31 10° ESE visible
26 Oct 11.5 06:17:40 10° SSW 06:31:50 31° SSE 06:43:17 10° ESE visible
27 Oct 11.8 04:28:47 10° S 04:39:40 20° SE 04:49:46 10° ESE visible
27 Oct 11.3 06:34:41 10° SW 06:49:42 36° SSE 07:01:37 10° ESE visible
28 Oct 11.6 04:44:33 10° SSW 04:57:18 25° SSE 05:09:00 10° E visible
